#timestamp,LO_Frequency,Hit,StdDev 
1593216015.2,286047005.3,N
1593216035.1,286047005.3,N
1593216036.0,286047005.3,N
1593216055.8,286047004.2,N
1593216075.7,286047001.3,N
1593216095.5,286046998.2,N
1593216115.3,286047000.6,N
1593216135.2,286047002.7,N
1593216155.0,286047004.4,N
1593216155.9,286047004.4,N
1593216175.7,286047003.2,N
1593216195.6,286047004.3,N
1593216215.4,286047004.6,N
1593216235.3,286047007.4,N
1593216255.1,286047006.9,N
1593216256.0,286047006.9,N
1593216275.8,286047004.5,N
1593216295.7,286047007.5,N
1593216315.5,286047006.5,N
1593216335.4,286047008.8,N
1593216355.2,286047008.4,N
1593216375.0,286047008.1,N
1593216375.9,286047008.1,N
1593216395.8,286047011.9,Y
1593216415.6,286047005.2,P
1593216435.4,286047008.9,P
1593216455.3,286047008.3,P
1593216475.1,286047012.3,Y
1593216495.9,286047008.8,P
1593216515.7,286047010.7,P
1593216535.5,286047009.1,P
1593216555.4,286047005.0,Y
1593216575.2,286046997.8,P
1593216595.0,286046995.9,N
1593216595.9,286046995.9,N
1593216615.8,286046996.2,N
1593216635.6,286046995.5,N
1593216655.5,286046995.5,N
1593216675.3,286046994.9,N
1593216695.1,286046997.5,N
1593216715.9,286046999.3,N
1593216735.7,286047002.8,N
1593216755.5,286047004.0,N
1593216775.4,286047001.8,N
1593216795.2,286047004.4,N
1593216815.1,286047003.2,N
1593216816.0,286047003.2,N
1593216835.8,286047004.7,N
1593216855.6,286047007.0,N
1593216875.5,286047007.4,N
1593216895.3,286047007.5,N
1593216915.1,286047006.4,N
1593216935.9,286047008.0,N
1593216955.7,286047012.4,N
1593216975.6,286047009.3,N
1593216995.4,286047008.1,N
1593217015.2,286047011.9,N
1593217035.1,286047011.8,N
1593217036.0,286047011.8,N
1593217055.8,286047010.7,N
1593217075.6,286047011.9,N
1593217095.5,286047011.3,N
1593217115.3,286047012.8,N
1593217135.2,286047016.8,N
1593217155.9,286047016.6,N
1593217175.7,286047014.3,N
1593217195.6,286047015.0,N
1593217215.4,286047016.9,N
1593217235.3,286047014.6,N
1593217285.1,286047018.6,E
1593217295.0,286047010.4,N
1593217295.9,286047010.4,P
1593217315.8,286046998.2,P
1593217335.6,286046998.9,N
1593217355.5,286047000.8,N
1593217375.3,286046999.8,N
1593217395.1,286047000.9,N
1593217415.9,286046998.2,N
1593217435.7,286047000.2,N
1593217455.5,286047000.9,N
1593217475.4,286047000.4,N
1593217495.2,286047003.2,N
1593217515.1,286047002.5,N
1593217516.0,286047002.5,N
1593217535.8,286047001.7,N
1593217555.6,286047005.8,N
1593217575.5,286047007.6,N
1593217595.3,286047003.8,N
1593217615.1,286047002.4,N
1593217635.9,286047000.8,N
1593217655.7,286046995.4,N
1593217675.6,286046995.1,N
1593217695.4,286046995.8,N
1593217715.2,286046996.2,N
1593217735.1,286046997.5,N
1593217736.0,286046997.5,N
1593217755.8,286047000.3,N
1593217775.7,286047003.7,N
1593217795.5,286047007.7,N
1593217815.3,286047010.9,N
1593217835.2,286047015.5,Y
1593217855.0,286047014.6,P
1593217855.9,286047014.6,N
1593217875.7,286047016.6,N
1593217895.6,286047017.7,N
1593217915.4,286047021.4,Y
1593217935.3,286047009.1,P
1593217955.1,286047012.4,P
1593217975.8,286047015.4,P
1593217995.7,286047017.0,Y
1593218015.5,286047005.1,P
1593218035.4,286047006.1,N
1593218055.2,286047010.5,P
1593218075.0,286047011.0,Y
1593218075.9,286047011.0,P
1593218095.8,286047005.7,P
1593218115.6,286047006.7,P
1593218135.5,286047005.7,N
1593218155.3,286047005.1,N
1593218175.1,286047006.3,Y
1593218195.9,286046996.6,P
1593218215.7,286046995.3,N
1593218235.5,286046995.3,N
1593218255.4,286046996.0,N
1593218275.2,286046994.3,N
1593218295.1,286046996.2,N
1593218296.0,286046996.2,N
1593218315.8,286046995.8,N
1593218335.6,286046994.5,N
1593218355.5,286046993.5,N
1593218375.3,286046994.6,N
1593218395.1,286046993.4,N
1593218415.9,286046995.5,N
1593218435.7,286046996.4,N
1593218455.6,286046997.9,N
1593218475.4,286046998.7,N
1593218495.2,286047000.5,N
1593218515.1,286047003.1,N
1593218516.0,286047003.1,N
1593218535.8,286047005.9,N
1593218555.7,286047003.1,N
1593218575.5,286047005.9,N
1593218595.3,286047005.7,N
1593218615.2,286047004.3,N
1593218635.9,286047002.4,N
1593218655.7,286046997.0,N
1593218675.6,286046993.5,N
1593218695.4,286046988.5,N
1593218715.2,286046984.0,Y
1593218735.1,286046985.0,P
1593218736.0,286046985.0,N
1593218755.8,286046984.0,N
1593218775.7,286046984.6,N
1593218795.5,286046985.3,N
1593218815.3,286046992.9,N
1593218835.2,286046994.5,N
1593218855.0,286046995.5,N
1593218855.9,286046995.5,N
1593218875.8,286046997.0,N
1593218895.6,286047000.4,N
1593218915.4,286047003.7,N
1593218935.3,286047004.5,N
1593218955.1,286047009.2,N
1593218975.8,286047010.9,N
1593218995.7,286047018.8,N
1593219015.5,286047016.9,N
1593219035.4,286047013.4,N
1593219055.2,286047010.9,N
1593219075.0,286047011.1,N
1593219075.9,286047011.1,N
1593219095.8,286047010.2,N
1593219115.6,286047012.0,N
1593219135.5,286047012.1,N
1593219155.3,286047013.8,N
1593219175.1,286047018.2,N
1593219195.9,286047024.6,N
1593219215.7,286047026.2,N
1593219235.5,286047029.0,N
1593219255.4,286047031.4,N
1593219275.2,286047030.5,N
1593219295.0,286047030.2,N
1593219296.0,286047030.2,N
1593219315.8,286047030.9,N
1593219335.6,286047033.1,N
1593219355.5,286047031.2,N
1593219375.3,286047031.1,N
1593219395.1,286047027.4,N
1593219415.9,286047028.1,N
1593219435.7,286047024.2,N
1593219455.6,286047025.4,N
1593219475.4,286047025.8,N
1593219495.2,286047028.3,Y
1593219515.1,286047003.9,P
1593219516.0,286047003.9,N
1593219535.8,286047003.9,N
1593219555.7,286047004.0,N
1593219575.5,286047003.2,N
1593219595.3,286047003.2,N
